Track STARLINK-1523 now! 10-day predictions STARLINK-1523 is classified as:
1 46028U 20055B 22219.55809564 .00001175 00000-0 97752-4 0 9998 2 46028 53.0537 248.0164 0001390 73.3137 286.8005 15.06404307111436